This is the latest recevied weather packets stored in our database for station/object EB5AGF-13. If no packets are shown the sender has not sent any weather packets the latest 10 day(s).
| Time | Temp. | Humidity | Pressure | Rain* | Wind** | Luminosity | Snow |
|---|---|---|---|---|---|---|---|
| 1777754793 | 18.33° C | 88% | 1013.9 hPa | 0 mm | 1.34 m/s, 40° | 0 W/m² | - |
| 1777754492 | 18.33° C | 88% | 1013.9 hPa | 0 mm | 0.45 m/s, 40° | 0 W/m² | - |
| 1777754192 | 18.33° C | 88% | 1014 hPa | 0 mm | 0.89 m/s, 357° | 0 W/m² | - |
| 1777753892 | 18.33° C | 88% | 1014 hPa | 0 mm | 1.34 m/s, 49° | 0 W/m² | - |
| 1777753592 | 18.33° C | 88% | 1014.1 hPa | 0 mm | 1.79 m/s, 9° | 0 W/m² | - |
| 1777753291 | 18.33° C | 88% | 1014.1 hPa | 0 mm | 0.45 m/s, 359° | 0 W/m² | - |
| 1777752987 | 18.33° C | 88% | 1013.9 hPa | 0 mm | 1.79 m/s, 14° | 0 W/m² | - |
| 1777752682 | 18.33° C | 88% | 1014 hPa | 0 mm | 0.89 m/s, 357° | 0 W/m² | - |
| 1777752379 | 18.33° C | 89% | 1014 hPa | 0 mm | 0.89 m/s, 92° | 0 W/m² | - |
| 1777752074 | 18.89° C | 89% | 1013.6 hPa | 0 mm | 1.79 m/s, 24° | 0 W/m² | - |
| 1777751771 | 18.89° C | 88% | 1013.8 hPa | 0 mm | 1.34 m/s, 64° | 0 W/m² | - |
| 1777751466 | 18.89° C | 88% | 1013.7 hPa | 0 mm | 1.34 m/s, 7° | 0 W/m² | - |
| 1777751162 | 18.33° C | 88% | 1013.6 hPa | 0 mm | 0.45 m/s, 28° | 0 W/m² | - |
| 1777750858 | 18.33° C | 88% | 1013.3 hPa | 0 mm | 1.79 m/s, 57° | 0 W/m² | - |
| 1777750251 | 18.33° C | 88% | 1013.4 hPa | 0 mm | 2.24 m/s, 6° | 0 W/m² | - |
| 1777749947 | 18.89° C | 88% | 1013.3 hPa | 0 mm | 0.89 m/s, 63° | 0 W/m² | - |
| 1777749642 | 18.89° C | 88% | 1013.2 hPa | 0 mm | 1.34 m/s, 66° | 0 W/m² | - |
| 1777749338 | 18.89° C | 88% | 1013.2 hPa | 0 mm | 1.79 m/s, 19° | 0 W/m² | - |
| 1777749033 | 18.89° C | 88% | 1013.1 hPa | 0 mm | 1.79 m/s, 4° | 0 W/m² | - |
| 1777748732 | 18.89° C | 88% | 1013 hPa | 0 mm | 0.89 m/s, 138° | 0 W/m² | - |
| 1777748432 | 18.89° C | 88% | 1013.2 hPa | 0 mm | 0.45 m/s, 40° | 1 W/m² | - |
| 1777748133 | 18.89° C | 87% | 1013.3 hPa | 0 mm | 0.89 m/s, 47° | 2 W/m² | - |
| 1777747832 | 18.89° C | 87% | 1013.3 hPa | 0 mm | 0.89 m/s, 345° | 3 W/m² | - |
| 1777747531 | 18.89° C | 87% | 1013.2 hPa | 0 mm | 0.89 m/s, 23° | 4 W/m² | - |
| 1777747226 | 18.89° C | 87% | 1013.1 hPa | 0 mm | 0.89 m/s, 350° | 7 W/m² | - |
* Rain latest hour (hover to see other rain measurements)
** Current wind speed in m/s (hover to see current wind gust speed)